Regional Weather Roundup
Issued by NWS Midland/Odessa, TX

Skip options and go directly to product.
Home | Oldest Version | Previous Version | Current Version | All | Graphics & Text | Save Text | Print | Product List | Glossary On

Skip product version selection by date and time.   
805
ASUS44 KMAF 290310
RWRMAF
MIDLAND AREA WEATHER ROUNDUP
NATIONAL WEATHER SERVICE MIDLAND TX
1000 PM CDT THU AUG 28 2014

...IN SOUTHWEST TEXAS AND SOUTHEAST NEW MEXICO...

CITY           SKY/WX    TMP DP  RH WIND       PRES   REMARKS
ALPINE         CLEAR     74  59  59 SW5       30.11R
ANDREWS        FAIR      77  64  63 E13       29.96R
ARTESIA        NOT AVBL
BIG SPRING     MOCLDY    76  65  66 E10       29.91F THUNDER
CARLSBAD       CLEAR     85  44  23 W7        29.92R
DRYDEN           N/A     84  64  50 NW5       29.88S
FORT STOCKTON  PTCLDY    82  58  43 S9        29.92R
GUAD PASS      CLEAR     79  39  23 W21G30    30.11R
HOBBS          PTCLDY    82  50  32 NW5       29.97R
MARFA          CLEAR     73  57  56 CALM      30.10S
MIDLAND AIRPK  NOT AVBL
MIDLAND INTL   MOCLDY    78  65  63 S8        29.91R
ODESSA         PTCLDY    81  63  54 CALM      29.94R THUNDER
PECOS          MOCLDY    80  66  63 SE6       29.88R
PRESIDIO       FAIR      87  59  39 N12G21    29.91R
SEMINOLE       MOCLDY    79  61  53 SE13      29.96R
SNYDER         CLOUDY    76  66  72 NE15G28   29.95R
WINK           PTCLDY    87  58  37 S8        29.88R
$$
...OTHER STATIONS IN TEXAS...

CITY           SKY/WX    TMP DP  RH WIND       PRES   REMARKS
ABILENE        MOCLDY    78  64  61 N28G36    29.92R THUNDER
AMARILLO       PTCLDY    68  62  81 VRB6      29.99R
AUSTIN         PTCLDY    82  70  66 SE6       29.89R
BROWNSVILLE    PTCLDY    83  77  82 S8        29.79S
CORPUS CHRISTI MOCLDY    84  77  79 E15       29.84R
DALLAS FTW     PTCLDY    89  67  47 SE14      29.87R
DEL RIO        PTCLDY    92  60  34 E8        29.81R
EL PASO        PTCLDY    85  45  24 N3        29.99R
HOUSTON INT    PTCLDY    79  73  83 SE6       29.90R
LUBBOCK        PTCLDY    70  65  84 E8        29.96R
SAN ANGELO     MOCLDY    86  59  39 SE7       29.88R
SAN ANTONIO    PTCLDY    84  72  67 E12       29.89R
WACO           CLEAR     84  69  60 SE10      29.89R
WICHITA FALLS  NOT AVBL
$$
...OTHER LOCATIONS IN NEW MEXICO...

CITY           SKY/WX    TMP DP  RH WIND       PRES   REMARKS
ALAMAGORDO     CLEAR     77  43  29 N9        30.03R
ALBUQUERQUE    CLEAR     76  40  27 NW8       30.13R
CANNON AFB     CLEAR     78  44  30 NW8       30.00R
CLOVIS           N/A     73  43  33 W7        30.02R
HOLLOMAN AFB   CLEAR     78  46  31 NE6       30.00R
ROSWELL        PTCLDY    81  44  27 NW6       29.97R
RUIDOSO        CLEAR     64  41  42 W9        30.25R
SANTA FE       CLEAR     66  42  41 N3        30.18R
TRUTH OR CONSE CLEAR     79  51  37 CALM      30.06R
TUCUMCARI      MOCLDY    77  44  30 E13       30.01R
$$

USA.gov is the U.S. government's official web portal to all federal, state and local government web resources and services.